N6OIL Weather Reports


Display with metric or nautical units.
time (UTC)temp
F
wind
direction
speed
MPH
gust
MPH
rain 1hr
in
rain 24hr
in
rain mn
in
humidity
%
barometer
mb
20260901140704 63 353 4.0 7.0 0.00 0.00 0.00 36 1016.5
20260901140204 63 358 4.0 8.0 0.00 0.00 0.00 37 1016.4
20260901135204 62 12 5.0 8.0 0.00 0.00 0.00 39 1016.2
20260901134205 61 3 5.0 10.0 0.00 0.00 0.00 46 1016.1
20260901133704 60 358 6.0 10.0 0.00 0.00 0.00 51 1016.2
20260901133204 60 12 6.0 10.0 0.00 0.00 0.00 55 1016.0
20260901132204 60 327 6.0 10.0 0.00 0.00 0.00 58 1015.9
20260901131705 61 322 6.0 10.0 0.00 0.00 0.00 58 1015.6
20260901130704 61 329 6.0 9.0 0.00 0.00 0.00 58 1015.5
20260901130204 61 327 5.0 9.0 0.00 0.00 0.00 57 1015.5
20260901125704 61 321 4.0 11.0 0.00 0.00 0.00 57 1015.5
20260901125204 61 307 5.0 13.0 0.00 0.00 0.00 57 1015.5
20260901124704 61 307 7.0 13.0 0.00 0.00 0.00 57 1015.4
20260901124205 61 304 8.0 12.0 0.00 0.00 0.00 58 1015.4
20260901123705 61 304 8.0 12.0 0.00 0.00 0.00 58 1015.5
20260901123204 61 295 8.0 12.0 0.00 0.00 0.00 59 1015.5
20260901122704 60 317 6.0 10.0 0.00 0.00 0.00 58 1015.6
20260901122204 60 293 6.0 10.0 0.00 0.00 0.00 58 1015.5
20260901121704 60 306 7.0 10.0 0.00 0.00 0.00 59 1015.5
20260901121204 60 304 7.0 10.0 0.00 0.00 0.00 59 1015.6
20260901120704 60 306 7.0 10.0 0.00 0.00 0.00 59 1015.5
20260901120204 60 304 6.0 9.0 0.00 0.00 0.00 59 1015.5
20260901115205 60 302 5.0 10.0 0.00 0.00 0.00 59 1015.6
20260901114204 61 312 6.0 12.0 0.00 0.00 0.00 58 1015.6
20260901113204 61 319 8.0 11.0 0.00 0.00 0.00 58 1015.6
20260901112704 60 294 6.0 10.0 0.00 0.00 0.00 59 1015.6
20260901112204 59 309 5.0 6.0 0.00 0.00 0.00 57 1015.7
20260901111704 59 326 4.0 5.0 0.00 0.00 0.00 57 1015.6
20260901111204 60 325 3.0 5.0 0.00 0.00 0.00 55 1015.6
20260901110704 60 325 3.0 5.0 0.00 0.00 0.00 55 1015.6
20260901110204 60 326 3.0 5.0 0.00 0.00 0.00 54 1015.6
20260901105204 61 326 4.0 5.0 0.00 0.00 0.00 53 1015.7
20260901104704 61 326 3.0 4.0 0.00 0.00 0.00 52 1015.7
20260901104205 61 326 3.0 4.0 0.00 0.00 0.00 50 1015.6
20260901103704 62 326 1.0 3.0 0.00 0.00 0.00 48 1015.7
20260901103204 62 326 1.0 4.0 0.00 0.00 0.00 45 1015.7
20260901102204 62 326 2.0 6.0 0.00 0.00 0.00 40 1015.7
20260901101705 62 326 4.0 6.0 0.00 0.00 0.00 38 1015.7
20260901101204 62 326 3.0 6.0 0.00 0.00 0.00 36 1015.6
20260901100704 62 326 3.0 6.0 0.00 0.00 0.00 36 1015.5
20260901100204 62 326 3.0 6.0 0.00 0.00 0.00 36 1015.6
20260901095704 62 321 3.0 6.0 0.00 0.00 0.00 38 1015.6
20260901094704 62 321 2.0 6.0 0.00 0.00 0.00 38 1015.6
20260901094204 62 321 3.0 6.0 0.00 0.00 0.00 38 1015.6
20260901093704 63 321 4.0 6.0 0.00 0.00 0.00 38 1015.4
20260901093204 63 321 4.0 9.0 0.00 0.00 0.00 37 1015.5
20260901092704 63 321 5.0 9.0 0.00 0.00 0.00 37 1015.5
20260901091205 64 315 3.0 6.0 0.00 0.00 0.00 34 1015.5
20260901090706 64 315 3.0 8.0 0.00 0.00 0.00 34 1015.5
20260901090204 63 315 4.0 8.0 0.00 0.00 0.00 34 1015.7
20260901085704 63 315 5.0 6.0 0.00 0.00 0.00 35 1015.7
20260901085204 63 315 4.0 6.0 0.00 0.00 0.00 35 1015.7
20260901084704 63 314 4.0 5.0 0.00 0.00 0.00 36 1015.7
20260901084204 63 314 3.0 5.0 0.00 0.00 0.00 37 1016.0
20260901083704 64 314 2.0 4.0 0.00 0.00 0.00 38 1015.9
20260901083204 64 314 3.0 5.0 0.00 0.00 0.00 37 1015.9
20260901082704 64 314 3.0 5.0 0.00 0.00 0.00 38 1016.0
20260901082204 65 314 3.0 5.0 0.00 0.00 0.00 38 1016.1
20260901081704 65 314 3.0 5.0 0.00 0.00 0.00 39 1016.1
20260901081204 65 314 3.0 6.0 0.00 0.00 0.00 40 1016.1
20260901080704 65 314 3.0 8.0 0.00 0.00 0.00 40 1016.1
20260901075204 66 292 3.0 10.0 0.00 0.00 0.00 45 1016.1
20260901074704 67 290 5.0 10.0 0.00 0.00 0.00 41 1016.1
20260901074205 67 301 7.0 10.0 0.00 0.00 0.00 39 1016.0
20260901073704 67 311 7.0 13.0 0.00 0.00 0.00 40 1016.0
20260901073204 67 317 7.0 13.0 0.00 0.00 0.00 41 1016.0
20260901072704 66 315 7.0 13.0 0.00 0.00 0.00 43 1016.0
20260901072205 66 338 6.0 17.0 0.00 0.00 0.00 48 1016.1
20260901071704 66 317 9.0 17.0 0.00 0.00 0.00 50 1016.1
20260901071204 66 331 12.0 21.0 0.00 0.00 0.00 51 1016.2
20260901070704 66 330 13.0 21.0 0.00 0.00 0.00 51 1016.0
20260901070204 66 319 13.0 21.0 0.00 0.00 0.00 50 1016.0
20260901065704 66 321 11.0 19.0 0.00 0.00 0.00 51 1016.0
20260901065204 66 331 10.0 19.0 0.00 0.00 0.00 51 1016.1
20260901064704 66 317 11.0 19.0 0.00 0.00 0.00 51 1016.0
20260901064205 66 311 11.0 19.0 0.00 0.00 0.00 51 1016.1
20260901063705 66 340 9.0 16.0 0.00 0.00 0.00 51 1016.1
20260901062204 66 340 11.0 20.0 0.00 0.00 0.00 51 1016.0
20260901061704 66 344 12.0 20.0 0.00 0.00 0.00 52 1016.0
20260901061204 66 333 13.0 19.0 0.00 0.00 0.00 52 1016.0
20260901060705 66 322 13.0 19.0 0.00 0.00 0.00 52 1016.0
20260901060205 67 344 13.0 20.0 0.00 0.00 0.00 53 1016.0
20260901055704 67 322 12.0 20.0 0.00 0.00 0.00 52 1015.9
20260901055204 66 310 13.0 20.0 0.00 0.00 0.00 53 1015.9
20260901054704 67 317 14.0 21.0 0.00 0.00 0.00 54 1015.9
20260901054204 67 305 13.0 21.0 0.00 0.00 0.00 54 1015.9
20260901053205 67 316 14.0 20.0 0.00 0.00 0.00 55 1015.9
20260901052706 67 311 13.0 18.0 0.00 0.00 0.00 55 1015.9
20260901051704 67 319 11.0 18.0 0.00 0.00 0.00 54 1015.9
20260901051204 67 328 10.0 18.0 0.00 0.00 0.00 54 1015.9
20260901050704 67 314 11.0 18.0 0.00 0.00 0.00 54 1015.7
20260901050205 67 317 12.0 18.0 0.00 0.00 0.00 53 1015.9
20260901045704 68 317 11.0 16.0 0.00 0.00 0.00 52 1015.9
20260901045204 68 330 9.0 13.0 0.00 0.00 0.00 50 1016.0
20260901044704 68 313 9.0 13.0 0.00 0.00 0.00 48 1016.0
20260901043204 69 315 10.0 15.0 0.00 0.00 0.00 44 1015.7
20260901042204 70 310 8.0 15.0 0.00 0.00 0.00 41 1015.7
20260901041704 70 300 8.0 13.0 0.00 0.00 0.00 38 1015.7
20260901041204 70 313 8.0 13.0 0.00 0.00 0.00 33 1015.6
20260901040704 71 321 7.0 9.0 0.00 0.00 0.00 32 1015.4
20260901040204 71 321 6.0 12.0 0.00 0.00 0.00 33 1015.4
20260901035705 71 298 6.0 13.0 0.00 0.00 0.00 34 1015.4
20260901035204 71 306 7.0 13.0 0.00 0.00 0.00 34 1015.3
20260901034704 71 301 7.0 13.0 0.00 0.00 0.00 36 1015.2
20260901033204 73 296 7.0 12.0 0.00 0.00 0.00 32 1015.0
20260901032704 74 296 5.0 8.0 0.00 0.00 0.00 28 1015.0
20260901031704 75 326 3.0 4.0 0.00 0.00 0.00 20 1014.9
20260901031204 76 326 3.0 4.0 0.00 0.00 0.00 20 1014.7
20260901030704 76 326 3.0 5.0 0.00 0.00 0.00 20 1014.6
20260901030204 77 326 3.0 11.0 0.00 0.00 0.00 19 1014.6
20260901025704 77 326 4.0 11.0 0.00 0.00 0.00 18 1014.5
20260901025204 78 327 5.0 11.0 0.00 0.00 0.00 18 1014.4
20260901024704 78 353 6.0 17.0 0.00 0.00 0.00 17 1014.4
20260901024204 78 328 8.0 17.0 0.00 0.00 0.00 17 1014.4
20260901023704 79 312 11.0 17.0 0.00 0.00 0.00 16 1014.3
20260901022704 79 313 7.0 11.0 0.00 0.00 0.00 16 1014.2
20260901022204 79 325 6.0 12.0 0.00 0.00 0.00 16 1014.2
20260901021704 79 338 7.0 12.0 0.00 0.00 0.00 16 1014.1
20260901021204 80 358 7.0 12.0 0.00 0.00 0.00 16 1014.1
20260901020704 80 358 6.0 11.0 0.00 0.00 0.00 15 1014.1
20260901020204 80 358 6.0 11.0 0.00 0.00 0.00 15 1014.0
20260901015704 81 358 6.0 11.0 0.00 0.00 0.00 15 1014.0
20260901015205 81 358 7.0 14.0 0.00 0.00 0.00 13 1014.0
20260901014704 82 358 7.0 14.0 0.00 0.00 0.00 13 1014.0
20260901014206 82 358 8.0 14.0 0.00 0.00 0.00 15 1014.0
20260901012704 83 36 9.0 15.0 0.00 0.00 0.00 14 1013.9
20260901012204 83 33 9.0 15.0 0.00 0.00 0.00 14 1014.0
20260901011704 83 358 9.0 15.0 0.00 0.00 0.00 13 1014.0
20260901010704 84 14 10.0 17.0 0.00 0.00 0.00 13 1013.9
20260901005204 84 10 12.0 18.0 0.00 0.00 0.00 13 1013.8
20260901004704 85 349 11.0 17.0 0.00 0.00 0.00 13 1013.8
20260901004205 85 353 11.0 19.0 0.00 0.00 0.00 13 1013.8
20260901003204 85 17 12.0 20.0 0.00 0.00 0.00 14 1013.8
20260901002704 85 9 12.0 20.0 0.00 0.00 0.00 13 1013.8
20260901002204 85 353 12.0 19.0 0.00 0.00 0.00 14 1013.9
20260901001704 85 3 11.0 18.0 0.00 0.00 0.00 14 1013.8
20260901001204 86 11 11.0 19.0 0.00 0.00 0.00 14 1013.8
20260901000704 86 38 10.0 19.0 0.00 0.00 0.00 13 1013.8
20260901000204 87 42 9.0 19.0 0.00 0.00 0.00 12 1013.8
20260831235704 87 353 9.0 16.0 0.00 0.00 0.00 12 1013.8
20260831235205 87 301 10.0 18.0 0.00 0.00 0.00 13 1013.8
20260831234704 87 346 11.0 18.0 0.00 0.00 0.00 13 1013.6
20260831234204 87 353 11.0 18.0 0.00 0.00 0.00 14 1013.6
20260831233704 87 326 11.0 18.0 0.00 0.00 0.00 13 1013.8
20260831232204 87 353 12.0 22.0 0.00 0.00 0.00 14 1013.6
20260831231704 87 270 12.0 22.0 0.00 0.00 0.00 22 1013.6
20260831231204 87 287 12.0 21.0 0.00 0.00 0.00 22 1013.6
20260831230705 87 309 12.0 22.0 0.00 0.00 0.00 23 1013.8
20260831230204 87 302 12.0 22.0 0.00 0.00 0.00 23 1013.8
20260831225704 87 309 13.0 22.0 0.00 0.00 0.00 22 1013.8
20260831225204 87 284 13.0 20.0 0.00 0.00 0.00 23 1013.8
20260831224704 87 288 14.0 19.0 0.00 0.00 0.00 24 1013.9
20260831224205 87 298 14.0 20.0 0.00 0.00 0.00 23 1013.9
20260831223704 87 279 14.0 21.0 0.00 0.00 0.00 24 1013.9
20260831223205 87 292 14.0 21.0 0.00 0.00 0.00 23 1013.9
20260831222204 87 286 15.0 22.0 0.00 0.00 0.00 24 1014.2
20260831221704 87 313 15.0 23.0 0.00 0.00 0.00 24 1014.2
20260831221204 87 300 16.0 23.0 0.00 0.00 0.00 24 1014.3
20260831220704 87 282 15.0 23.0 0.00 0.00 0.00 24 1014.2
20260831220206 88 294 14.0 22.0 0.00 0.00 0.00 24 1014.3
20260831215704 88 304 15.0 24.0 0.00 0.00 0.00 23 1014.3
20260831214704 88 302 15.0 24.0 0.00 0.00 0.00 21 1014.2
20260831214205 88 311 14.0 22.0 0.00 0.00 0.00 23 1014.2
20260831213704 87 318 14.0 21.0 0.00 0.00 0.00 23 1014.5
20260831213204 87 302 14.0 20.0 0.00 0.00 0.00 25 1014.3
20260831212704 88 277 11.0 19.0 0.00 0.00 0.00 22 1014.4
20260831212204 88 286 10.0 17.0 0.00 0.00 0.00 22 1014.5
20260831211704 88 313 12.0 20.0 0.00 0.00 0.00 23 1014.6
20260831211206 88 319 12.0 20.0 0.00 0.00 0.00 22 1014.6
20260831210704 87 304 12.0 20.0 0.00 0.00 0.00 22 1014.6
20260831210204 87 284 13.0 23.0 0.00 0.00 0.00 19 1014.5
20260831205704 88 284 15.0 23.0 0.00 0.00 0.00 20 1014.6
20260831205206 87 290 15.0 21.0 0.00 0.00 0.00 22 1014.6
20260831204704 87 290 14.0 20.0 0.00 0.00 0.00 24 1014.6
20260831204204 87 279 13.0 21.0 0.00 0.00 0.00 24 1014.6
20260831203704 87 298 13.0 21.0 0.00 0.00 0.00 24 1014.9
20260831203205 86 302 14.0 21.0 0.00 0.00 0.00 25 1014.9
20260831202704 86 267 13.0 19.0 0.00 0.00 0.00 26 1015.0
20260831202204 87 276 12.0 19.0 0.00 0.00 0.00 25 1015.0
20260831201704 86 284 11.0 17.0 0.00 0.00 0.00 25 1015.0
20260831200704 85 307 11.0 17.0 0.00 0.00 0.00 27 1015.2
20260831200204 85 297 9.0 15.0 0.00 0.00 0.00 26 1015.2
20260831195704 85 311 8.0 16.0 0.00 0.00 0.00 27 1015.2
20260831195204 85 305 9.0 17.0 0.00 0.00 0.00 27 1015.1
20260831194705 85 310 9.0 18.0 0.00 0.00 0.00 28 1015.2
20260831194204 85 250 11.0 18.0 0.00 0.00 0.00 29 1015.2
20260831193704 85 332 11.0 18.0 0.00 0.00 0.00 28 1015.2
20260831193204 85 295 10.0 18.0 0.00 0.00 0.00 28 1015.3
20260831192704 85 313 10.0 18.0 0.00 0.00 0.00 29 1015.3
20260831191704 85 273 10.0 19.0 0.00 0.00 0.00 29 1015.4
20260831191204 85 340 9.0 16.0 0.00 0.00 0.00 29 1015.6
20260831190704 85 287 9.0 16.0 0.00 0.00 0.00 30 1015.6
20260831190204 85 309 9.0 16.0 0.00 0.00 0.00 30 1015.5
20260831185204 84 309 8.0 14.0 0.00 0.00 0.00 30 1015.6
20260831184704 84 254 8.0 14.0 0.00 0.00 0.00 30 1015.7
20260831183704 84 295 7.0 14.0 0.00 0.00 0.00 31 1015.7
20260831183204 83 294 7.0 15.0 0.00 0.00 0.00 31 1015.7
20260831182704 83 316 9.0 15.0 0.00 0.00 0.00 32 1015.7
20260831181204 82 271 10.0 15.0 0.00 0.00 0.00 33 1015.9
20260831180704 82 310 10.0 17.0 0.00 0.00 0.00 33 1015.9
20260831175704 82 268 11.0 17.0 0.00 0.00 0.00 34 1015.9
20260831175206 82 296 9.0 13.0 0.00 0.00 0.00 34 1015.9
20260831174705 82 358 9.0 13.0 0.00 0.00 0.00 34 1015.9
20260831174204 82 250 8.0 13.0 0.00 0.00 0.00 34 1015.9
20260831172704 82 247 7.0 13.0 0.00 0.00 0.00 35 1015.9
20260831172204 82 290 6.0 12.0 0.00 0.00 0.00 35 1015.7
20260831171704 81 294 6.0 11.0 0.00 0.00 0.00 36 1015.7
20260831171204 82 297 6.0 11.0 0.00 0.00 0.00 37 1015.7
20260831170706 81 304 5.0 11.0 0.00 0.00 0.00 37 1015.5
20260831170204 81 258 6.0 11.0 0.00 0.00 0.00 37 1015.5
20260831165704 82 277 4.0 7.0 0.00 0.00 0.00 36 1015.5
20260831165204 82 149 3.0 7.0 0.00 0.00 0.00 37 1015.4
20260831164705 82 149 3.0 7.0 0.00 0.00 0.00 36 1015.3
20260831164204 82 171 2.0 8.0 0.00 0.00 0.00 37 1015.3
20260831163704 81 252 2.0 8.0 0.00 0.00 0.00 38 1015.3
20260831163204 81 254 3.0 6.0 0.00 0.00 0.00 37 1015.3
20260831162706 81 258 3.0 4.0 0.00 0.00 0.00 37 1015.3
20260831162204 81 257 1.0 4.0 0.00 0.00 0.00 39 1015.3
20260831161704 80 257 1.0 7.0 0.00 0.00 0.00 40 1015.3
20260831161204 79 257 2.0 7.0 0.00 0.00 0.00 40 1015.3
20260831155705 78 301 3.0 8.0 0.00 0.00 0.00 42 1015.4
20260831155204 78 301 2.0 5.0 0.00 0.00 0.00 42 1015.4
20260831154205 77 292 3.0 7.0 0.00 0.00 0.00 43 1015.4
20260831153705 77 292 3.0 8.0 0.00 0.00 0.00 43 1015.4
20260831152206 75 292 3.0 5.0 0.00 0.00 0.00 47 1015.4
20260831151704 74 292 3.0 7.0 0.00 0.00 0.00 48 1015.4
20260831151204 74 292 3.0 7.0 0.00 0.00 0.00 49 1015.4
20260831150205 73 291 3.0 3.0 0.00 0.00 0.00 50 1015.5
20260831145705 72 320 2.0 6.0 0.00 0.00 0.00 48 1015.5
20260831145204 71 320 3.0 6.0 0.00 0.00 0.00 48 1015.4
20260831144704 71 320 4.0 6.0 0.00 0.00 0.00 47 1015.4
20260831144205 70 358 4.0 5.0 0.00 0.00 0.00 48 1015.4
20260831143704 70 321 3.0 4.0 0.00 0.00 0.00 49 1015.4
20260831143204 69 358 2.0 6.0 0.00 0.00 0.00 51 1015.4
20260831142704 69 320 3.0 6.0 0.00 0.00 0.00 53 1015.3
20260831142204 68 320 4.0 6.0 0.00 0.00 0.00 55 1015.3
20260831141704 68 321 3.0 5.0 0.00 0.00 0.00 56 1015.2
20260831141204 68 321 2.0 4.0 0.00 0.00 0.00 58 1015.2